Preview of NWS' New Version of Forecast
This preview is not operational and should not be used for support decisions.

Regional Weather Roundup (RWR)

Issued by National Weather Service (NWS)

                            
000
ASUS43 KDMX 180601
RWRIA 

WEATHER ROUNDUP FOR IOWA
NATIONAL WEATHER SERVICE DES MOINES IA
100 AM CDT THU APR 18 2019

NOTE: "FAIR" INDICATES FEW OR NO CLOUDS BELOW 12,000 FEET WITH NO
SIGNIFICANT WEATHER AND/OR OBSTRUCTIONS TO VISIBILITY.

* - THESE STATIONS ARE NOT NWS STATIONS...THUS NOT UNDER NWS
QUALITY CONTROL.  THEY ALSO DO NOT REPORT WEATHER SUCH 
AS PRECIPITATION OR FOG.  

IAZ001>003-012>014-020>022-031>034-043>046-180700-
   NORTHWEST IOWA
  
CITY           SKY/WX    TMP DP  RH WIND       PRES   REMARKS
CARROLL *      CLOUDY    46  43  87 NW20      29.77R                  
CHEROKEE *     CLOUDY    43  40  88 N15       29.78R                  
DENISON *      CLOUDY    43  41  93 NW7G14    29.81R                  
LE MARS *      MOCLDY    43  41  93 NW8G15    29.81R                  
SHELDON *      CLOUDY    41  41 100 N13       29.78R                  
SIOUX CITY     CLOUDY    47  41  80 NW14      29.81R                  
6HR MIN TEMP:  47; 6HR MAX TEMP:  52;                                

SPENCER        CLOUDY    44  38  79 N20G30    29.77R                  
6HR MIN TEMP:  44; 6HR MAX TEMP:  48;                                

STORM LAKE *   CLOUDY    41  41 100 N20G25    29.73R                  
$$
 
IAZ055>058-069>071-079>083-090>094-180700-
   SOUTHWEST IOWA
  
CITY           SKY/WX    TMP DP  RH WIND       PRES   REMARKS
ATLANTIC *     MOCLDY    45  45 100 NW13      29.77S                  
AUDUBON *      CLOUDY    45  39  81 CALM      29.79R                  
CLARINDA *     CLOUDY    48  43  81 N13G18    29.80R                  
COUNCIL BLFS * MOCLDY    46  46 100 NW13      29.80F                  
CRESTON *      CLOUDY    46  41  81 N15       29.74S                  
HARLAN  *      CLOUDY    43  41  93 NW13      29.80R                  
LAMONI         CLOUDY    49  42  77 N17G26    29.73S                  
6HR MIN TEMP:  49; 6HR MAX TEMP:  65;                                

RED OAK *      CLOUDY    48  43  81 NW13G18   29.78S                  
SHENANDOAH *   CLOUDY    48  43  81 NW13      29.78S                  
$$
 
IAZ047>049-059>061-072>074-084-180700-
   CENTRAL IOWA
  
CITY           SKY/WX    TMP DP  RH WIND       PRES   REMARKS
AMES           CLOUDY    47  39  74 NW23G33   29.70F                  
6HR MIN TEMP:  47; 6HR MAX TEMP:  56;                                

ANKENY *       CLOUDY    46  39  76 MISG      29.73F                  
BOONE *        CLOUDY    45  43  93 NW18G24   29.71F                  
CHARITON *     CLOUDY    48  43  81 NW18G26   29.71S                  
DES MOINES     CLOUDY    47  38  71 NW20G30   29.71F                  
6HR MIN TEMP:  47; 6HR MAX TEMP:  59;                                

GRINNELL*      CLOUDY    46  42  86 NW16      29.70F                  
KNOXVILLE *    CLOUDY    48  48 100 NW21G31   29.69F                  
MARSHALLTOWN   CLOUDY    47  42  83 NW17G30   29.67F                  
6HR MIN TEMP:  46; 6HR MAX TEMP:  59;                                

NEWTON *       CLOUDY    46  43  87 NW21G28   29.70S                  
PELLA *        CLOUDY    47  41  78 NW15G24   29.70F                  
PERRY *        CLOUDY    46  42  85 NW17      29.74S                  
$$
 
IAZ004>006-015-016-023>025-035-036-180700-
   NORTH CENTRAL IOWA
  
CITY           SKY/WX    TMP DP  RH WIND       PRES   REMARKS
ALGONA *       CLOUDY    43  41  93 NW22G38   29.71S                  
CLARION *      CLOUDY    45  43  93 NW22G29   29.71R                  
ESTHERVILLE    CLOUDY    40  38  93 N21G29    29.75R WCI  30          
6HR MIN TEMP:  40; 6HR MAX TEMP:  44;                                

FORT DODGE *   CLOUDY    44  39  82 NW10G17   29.73S                  
MASON CITY     CLOUDY    43  42  97 NW20G25   29.69R                  
6HR MIN TEMP:  43; 6HR MAX TEMP:  51;                                

FOREST CITY *  CLOUDY    43  41  93 NW18G24   29.68R                  
IOWA FALLS *   CLOUDY    46  43  89 NW17G24   29.69R                  
$$

IAZ007>011-017>019-026>030-037>042-050>054-066-180700-
   NORTHEAST IOWA
  
CITY           SKY/WX    TMP DP  RH WIND       PRES   REMARKS
CEDAR RAPIDS   CLOUDY    47  44  90 NW21G31   29.64F                  
6HR MIN TEMP:  47; 6HR MAX TEMP:  62; 6HR PCP:  0.16;                

CHARLES CITY * CLOUDY    45  43  93 NW15G22   29.64R                  
CLINTON *      CLOUDY    54  51  90 W17       29.61S                  
DECORAH *      CLOUDY    46  45  93 W10G18    29.59R                  
DUBUQUE        CLOUDY    50  46  86 W14       29.61R                  
6HR MIN TEMP:  50; 6HR MAX TEMP:  70;                                

MONTICELLO *   CLOUDY    50  46  87 W17G24    29.63S                  
OELWEIN *      CLOUDY    46  46 100 NW20G26   29.63F                  
WATERLOO       CLOUDY    48  42  80 NW13G25   29.64F                  
6HR MIN TEMP:  48; 6HR MAX TEMP:  63;                                

$$
 
IAZ064-065-067-068-078-180700-
   EAST CENTRAL IOWA
  
CITY           SKY/WX    TMP DP  RH WIND       PRES   REMARKS
DAVENPORT      CLOUDY    54  49  83 W18G26    29.63S                  
6HR MIN TEMP:  54; 6HR MAX TEMP:  75; 6HR PCP:  0.25;                

IOWA CITY      CLOUDY    50  44  80 W14G29    29.67S                  
6HR MIN TEMP:  50; 6HR MAX TEMP:  73; 6HR PCP:  0.22;                

MT. PLEASANT * CLOUDY    55  50  82 N18G24    29.62F                  
MUSCATINE *    CLOUDY    55  48  76 NW12G23   29.64F                  
QUAD CITIES    CLOUDY    57  50  77 W13G22    29.62R                  
6HR MIN TEMP:  57; 6HR MAX TEMP:  77;                                

$$
 
IAZ062-063-075>077-085>089-095>099-180700-
   SOUTHEAST IOWA
  
CITY           SKY/WX    TMP DP  RH WIND       PRES   REMARKS
BURLINGTON     LGT RAIN  55  49  80 N16G23    29.62F                  
6HR MIN TEMP:  55; 6HR MAX TEMP:  73; 6HR PCP: TRACE;                

FAIRFIELD *    CLOUDY    52  46  82 NW22G29   29.63F                  
FORT MADISON * LGT RAIN  55  52  88 N10       29.62F                  
KEOKUK *       LGT RAIN  55  52  88 NW7G15    29.63R                  
OSKALOOSA *    CLOUDY    49  42  78 NW17      29.69R                  
CENTERVILLE *  MOCLDY    50  46  87 NW20G26   29.70R                  
OTTUMWA        CLOUDY    50  43  77 NW23G30   29.67F                  
6HR MIN TEMP:  50; 6HR MAX TEMP:  73; 6HR PCP:  0.06;                

WASHINGTON *   CLOUDY    52  50  93 NW22      29.66F                  
$$

ABBREVIATIONS USED IN REMARKS
   TC - TEMPERATURES IN CELSIUS
  WCI - WIND CHILL INDEX
   HX - HEAT INDEX
  VSB - VISIBILITY  
$$